This is the latest recevied weather packets stored in our database for station/object K7PMV-13. If no packets are shown the sender has not sent any weather packets the latest 10 day(s).
| Time | Temp. | Humidity | Pressure | Rain* | Wind** | Luminosity | Snow |
|---|---|---|---|---|---|---|---|
| 1777878249 | 24.44° C | 39% | 1006 hPa | 0 mm | - | 0 W/m² | - |
| 1777877931 | 24.44° C | 39% | 1006 hPa | 0 mm | - | 0 W/m² | - |
| 1777877616 | 24.44° C | 39% | 1005.9 hPa | 0 mm | - | 0 W/m² | - |
| 1777877297 | 24.44° C | 39% | 1005.9 hPa | 0 mm | - | 0 W/m² | - |
| 1777876982 | 24.44° C | 39% | 1005.8 hPa | 0 mm | - | 0 W/m² | - |
| 1777876668 | 25° C | 38% | 1005.7 hPa | 0 mm | - | 0 W/m² | - |
| 1777876353 | 24.44° C | 38% | 1005.7 hPa | 0 mm | - | 0 W/m² | - |
| 1777876038 | 24.44° C | 37% | 1005.7 hPa | 0 mm | - | 0 W/m² | - |
| 1777875723 | 25° C | 37% | 1005.6 hPa | 0 mm | - | 0 W/m² | - |
| 1777875408 | 25° C | 36% | 1005.7 hPa | 0 mm | - | 0 W/m² | - |
| 1777875090 | 25° C | 35% | 1005.7 hPa | 0 mm | - | 0 W/m² | - |
| 1777874771 | 25° C | 34% | 1005.6 hPa | 0 mm | - | 0 W/m² | - |
| 1777874456 | 25° C | 33% | 1005.7 hPa | 0 mm | - | 0 W/m² | - |
| 1777874136 | 25° C | 32% | 1005.8 hPa | 0 mm | - | 0 W/m² | - |
| 1777873822 | 25.56° C | 32% | 1005.8 hPa | 0 mm | - | 0 W/m² | - |
| 1777873504 | 25.56° C | 32% | 1005.9 hPa | 0 mm | - | 0 W/m² | - |
| 1777873185 | 25.56° C | 32% | 1005.9 hPa | 0 mm | - | 0 W/m² | - |
| 1777872870 | 26.11° C | 31% | 1005.7 hPa | 0 mm | - | 0 W/m² | - |
| 1777872551 | 26.11° C | 31% | 1005.7 hPa | 0 mm | - | 0 W/m² | - |
| 1777872233 | 26.11° C | 31% | 1005.6 hPa | 0 mm | - | 0 W/m² | - |
| 1777871909 | 26.11° C | 30% | 1005.5 hPa | 0 mm | - | 0 W/m² | - |
| 1777871595 | 26.67° C | 30% | 1005.6 hPa | 0 mm | - | 0 W/m² | - |
| 1777871280 | 26.11° C | 30% | 1005.6 hPa | 0 mm | - | 0 W/m² | - |
| 1777870965 | 26.11° C | 30% | 1005.7 hPa | 0 mm | - | 0 W/m² | - |
| 1777870638 | 26.67° C | 29% | 1005.6 hPa | 0 mm | - | 0 W/m² | - |
* Rain latest hour (hover to see other rain measurements)
** Current wind speed in m/s (hover to see current wind gust speed)